Location: Saluda
(35.2377°N, 82.3468°W)
Time: 15:54:25
(UTC+00:00)

Explorer 11/Cluster Stage 4 - Pass Details

Date: 03 October 2022
Orbit: 466 x 1247 km, 28.8° (Epoch: 08 December)

Event Time Altitude Azimuth Distance (km) Brightness Sun altitude
Rises 15:23:05 0° 221° (SW) 4,151 10.4 42.2°
Reaches altitude 10° 15:26:30 10° 210° (SSW) 3,208 10.0 42.7°
Maximum altitude 15:33:02 27° 157° (SSE) 2,168 10.5 43.5°
Drops below altitude 10° 15:39:16 10° 104° (ESE) 3,055 10.3 44.3°
Sets 15:42:25 0° 92° (E) 3,921 10.5 44.6°
